sat.trackr.live / text

‹ back to catalog

STARLINK-11721 [DTC]

NORAD 64127 · 2025-111E

PAYLOAD ACTIVE UNKNOWN

§ Identity

Operator
Country
US
Launch date
2025-05-24
Launch site
AFETR
Launch vehicle
Mass (kg)
RCS (m²)

Purposes: comms

External: N2YO · Heavens-Above · Gunter

§ Orbital elements

Epoch: 2026-05-24T14:41:04.265952Z

Period
91.67 min
Inclination
42.9991°
Eccentricity
0.0002889
Mean motion
15.70912000 rev/d
Perigee alt
354.3 km
Apogee alt
358.2 km
Semi-major
6,734.4 km
B*
1.1329e-3
RAAN
235.8636°
Arg perigee
264.9256°
Mean anomaly
95.1282°
Rev number
5,858

§ Raw data

STARLINK-11721 [DTC]1 64127U 25111E   26144.61185493  .00148002  00000+0  11329-2 0  99962 64127  42.9991 235.8636 0002889 264.9256  95.1282 15.70912000 58588

JSON: /api/v1/satellites/64127 · /tle

For live sub-satellite position, see the globe view (requires WebGL).

§ Visibility from observer

Set your observer location to see the next 7 days of passes ≥ 10°. The values pass through the URL so the page stays shareable.

No JS? Fill the form by hand. The geolocation button needs JavaScript.